Location: Clanezzo
(45.7500°N, 9.6000°E)
Time: 13:35:15
(UTC+00:00)

LO-87 - Visible Passes

Search period start: 25 June 2022 00:00
Search period end: 05 July 2022 00:00
Orbit: 454 x 468 km, 97.4° (Epoch: 25 June)

Date Brightness Start Highest point End Pass type
(mag) Time Alt. Az. Time Alt. Az. Time Alt. Az.
25 Jun ? 21:55:37 16° E 21:56:31 18° ENE 21:58:55 10° NNE visible
25 Jun ? 23:29:30 30° W 23:29:30 30° W 23:32:23 10° NNW visible
26 Jun ? 22:57:40 80° WSW 22:57:41 80° WSW 23:01:10 10° NNW visible
27 Jun ? 22:25:49 37° E 22:26:12 38° ENE 22:29:27 10° N visible
27 Jun ? 23:59:41 14° W 23:59:41 14° W 00:01:12 10° WNW visible
28 Jun ? 21:53:56 16° E 21:54:51 17° ENE 21:57:11 10° NNE visible
28 Jun ? 23:27:49 31° W 23:27:49 31° W 23:30:44 10° NNW visible
29 Jun ? 22:55:55 85° WSW 22:55:56 85° WSW 22:59:25 10° NNW visible
30 Jun ? 22:24:01 35° E 22:24:25 36° ENE 22:27:38 10° N visible
30 Jun ? 23:57:53 14° W 23:57:53 14° W 23:59:32 10° WNW visible
01 Jul ? 21:52:05 15° E 21:53:00 16° ENE 21:55:15 10° NNE visible
01 Jul ? 23:25:58 33° W 23:25:58 33° W 23:28:54 10° NNW visible
02 Jul ? 22:54:01 89° N 22:54:01 89° N 22:57:29 10° NNW visible
03 Jul ? 22:22:03 33° E 22:22:25 34° ENE 22:25:36 10° N visible
03 Jul ? 23:55:55 15° W 23:55:55 15° W 23:57:39 10° NW visible
04 Jul ? 21:50:04 14° E 21:50:58 16° ENE 21:53:06 10° NNE visible
04 Jul ? 23:23:56 35° W 23:23:56 35° W 23:26:53 10° NNW visible
